Location: Clinton NY
(43.0598°N, 75.3602°W)
Time: 11:59:28
(UTC-05:00)

Amateur Radio Satellites - All Passes

Search period start: 14 February 2016 11:29
Search period end: 15 February 2016 11:29
Location: Clinton NY, 43.0598°N, 75.3602°W

Satellite Date Start Highest point End Downlink Frequencies (MHz)
Time Altitude Azimuth
JAS-2 14 Feb 11:31:27 11:37:14 26° 62° (ENE) 11:42:34 435.910
VELOX 1 14 Feb 11:33:11 11:37:37 73° 103° (ESE) 11:41:59 145.980
UKube-1 14 Feb 11:35:51 11:40:11 71° 102° (ESE) 11:44:28 .
SPROUT 14 Feb 11:36:58 11:40:30 25° 95° (E) 11:43:59 437.525
POLYITAN 1 14 Feb 11:50:23 11:52:42 14° 269° (W) 11:55:01 437.675
AISAT 14 Feb 11:50:50 11:55:15 69° 285° (WNW) 11:59:35 437.250
QB50P2 14 Feb 11:50:54 11:53:06 14° 269° (W) 11:55:20 145.880/145.840
CUBEBUG 1 14 Feb 11:55:56 12:00:17 74° 285° (WNW) 12:04:35 437.445
DX 1 14 Feb 11:56:58 12:01:15 58° 287° (WNW) 12:05:30 434.975-435.025
DANDE 14 Feb 12:12:32 12:19:03 55° 73° (ENE) 12:23:53 436.750
Cosmos 2499 14 Feb 12:26:10 12:27:19 10° 309° (NW) 12:28:28 435.465 / 435.565
Gurwin Techsat 1B 14 Feb 12:26:13 12:30:44 29° 65° (ENE) 12:35:16 435.225
PCSat 14 Feb 12:29:37 12:30:48 11° 330° (NNW) 12:31:59 145.827
ESTCUBE 1 14 Feb 12:33:27 12:37:09 25° 294° (WNW) 12:40:49 437.505/2401.250
SO-50 14 Feb 12:35:29 12:40:19 77° 238° (WSW) 12:44:57 436.795
ITAMSAT 1 14 Feb 12:35:45 12:39:24 20° 61° (ENE) 12:43:03 435.822/435.867
CUSAT 1 14 Feb 12:39:56 12:44:54 42° 269° (W) 12:48:41 437.405
50 SAT 14 Feb 12:46:56 12:48:32 12° 297° (WNW) 12:50:09 437.505
Oscar 19 14 Feb 12:53:12 12:58:20 65° 259° (WSW) 13:03:30 437.125/150
ITUPSAT 1 14 Feb 12:54:43 12:56:32 12° 89° (E) 12:58:19 437.325
BEESAT 14 Feb 12:59:15 13:01:41 14° 90° (E) 13:04:05 436.000
TISAT 1 14 Feb 13:01:50 13:06:02 78° 103° (ESE) 13:10:11 437.305
AO-7 14 Feb 13:08:41 13:15:08 26° 52° (NE) 13:21:34 29.400- 29.500
VELOX 1 14 Feb 13:11:40 13:13:29 12° 300° (WNW) 13:15:19 145.980
SPROUT 14 Feb 13:12:45 13:16:28 30° 291° (WNW) 13:20:11 437.525
UKube-1 14 Feb 13:13:51 13:15:40 12° 300° (WNW) 13:17:28 .
JAS-2 14 Feb 13:14:21 13:21:50 67° 258° (WSW) 13:28:35 435.910
YUBILEINY 14 Feb 13:18:48 13:27:28 54° 76° (ENE) 13:36:01 435.215
RS-15 14 Feb 13:18:56 13:29:16 38° 328° (NNW) 13:40:10 29.354- 29.394
Cosmos 2491 14 Feb 13:28:36 13:35:47 30° 82° (E) 13:42:57 435.465 / 435.565
ISS 14 Feb 13:33:06 13:35:59 29° 137° (SE) 13:38:52 145.825
Cosmos 2504 14 Feb 13:36:58 13:41:54 16° 57° (ENE) 13:46:39 435.465 / 435.565
SWISSCUBE 14 Feb 13:50:34 13:55:14 49° 100° (E) 13:59:53 437.505
DANDE 14 Feb 13:56:43 14:01:07 20° 280° (W) 14:04:46 436.750
Gurwin Techsat 1B 14 Feb 14:05:37 14:10:32 38° 263° (W) 14:15:30 435.225
ITAMSAT 1 14 Feb 14:13:17 14:18:24 59° 259° (WSW) 14:23:34 435.822/435.867
ITUPSAT 1 14 Feb 14:30:05 14:34:55 77° 286° (WNW) 14:39:44 437.325
BEESAT 14 Feb 14:35:09 14:39:56 67° 287° (WNW) 14:44:41 436.000
TISAT 1 14 Feb 14:40:12 14:41:05 11° 300° (WNW) 14:41:57 437.305
KKS-1 14 Feb 14:51:54 14:55:38 26° 95° (E) 14:59:22 437.445
AO-7 14 Feb 14:58:37 15:07:01 83° 252° (WSW) 15:15:27 29.400- 29.500
JAS-2 14 Feb 15:05:49 15:07:45 11° 274° (W) 15:09:40 435.910
O/OREOS (USA 219) 14 Feb 15:06:05 15:07:58 12° 48° (NE) 15:09:50 437.305
ISS 14 Feb 15:09:15 15:12:21 40° 335° (NNW) 15:15:26 145.825
YUBILEINY 14 Feb 15:16:11 15:23:52 35° 276° (W) 15:31:29 435.215
HORYU 2 14 Feb 15:17:41 15:21:58 54° 72° (ENE) 15:26:17 437.375
M-CUBED/EXP-1 PRIME 14 Feb 15:20:50 15:24:21 73° 253° (WSW) 15:27:41 437.505
MOZHAYETS 4 14 Feb 15:22:52 15:26:39 24° 94° (E) 15:30:26
Cosmos 2491 14 Feb 15:23:25 15:32:00 61° 283° (WNW) 15:40:39 435.465 / 435.565
AUBIESAT-1 14 Feb 15:25:53 15:29:24 79° 252° (WSW) 15:32:46 437.475
Cosmos 2504 14 Feb 15:28:26 15:37:02 75° 80° (E) 15:44:58 435.465 / 435.565
SWISSCUBE 14 Feb 15:29:12 15:32:41 20° 297° (WNW) 15:36:10 437.505
BEESAT 3 14 Feb 15:32:30 15:36:17 43° 118° (ESE) 15:40:05 437.485
RS-15 14 Feb 15:37:09 15:46:25 25° 2° (N) 15:55:59 29.354- 29.394
STARS 14 Feb 15:56:50 16:01:13 71° 103° (ESE) 16:05:34 437.465
AO-85 14 Feb 15:58:10 16:01:19 16° 32° (NNE) 16:04:20 145.980
BEESAT 2 14 Feb 16:06:00 16:09:59 65° 120° (ESE) 16:13:58 435.950
ITUPSAT 1 14 Feb 16:11:47 16:11:55 10° 303° (WNW) 16:12:03 437.325
KKS-1 14 Feb 16:28:19 16:32:12 30° 292° (WNW) 16:36:03 437.445
CUTE-I 14 Feb 16:29:46 16:34:13 28° 64° (ENE) 16:38:43 437.470
O/OREOS (USA 219) 14 Feb 16:43:28 16:48:04 89° 51° (NE) 16:52:41 437.305
Cubesat XI-IV 14 Feb 16:44:42 16:49:33 37° 67° (ENE) 16:54:26 437.490
ISS 14 Feb 16:47:03 16:49:24 18° 355° (N) 16:51:46 145.825
AO-7 14 Feb 16:56:00 17:00:57 17° 271° (W) 17:05:57 29.400- 29.500
HORYU 2 14 Feb 16:56:23 16:58:53 15° 269° (W) 17:01:22 437.375
MOZHAYETS 4 14 Feb 16:59:39 17:03:53 36° 291° (WNW) 17:08:07
BRITE-PL 14 Feb 17:01:04 17:05:52 30° 67° (ENE) 17:10:30 437.365/2234.400
AIST 2 14 Feb 17:05:08 17:08:42 28° 114° (ESE) 17:12:15 435.215
BEESAT 3 14 Feb 17:11:08 17:14:14 21° 316° (NW) 17:17:20 437.485
LilacSat-2 14 Feb 17:16:36 17:20:19 53° 74° (ENE) 17:24:01 437.200
Cosmos 2504 14 Feb 17:23:15 17:29:23 23° 282° (WNW) 17:35:14 435.465 / 435.565
Cosmos 2491 14 Feb 17:27:33 17:30:59 13° 306° (NW) 17:34:27 435.465 / 435.565
HO-68 14 Feb 17:30:29 17:34:46 17° 51° (NE) 17:39:02 435.675
STARS 14 Feb 17:35:09 17:37:01 13° 299° (WNW) 17:38:52 437.465
AO-85 14 Feb 17:37:42 17:42:55 69° 54° (NE) 17:47:38 145.980
GOMX 1 14 Feb 17:39:54 17:44:36 34° 69° (ENE) 17:49:05 467.674
PCSat 14 Feb 17:44:24 17:49:13 31° 48° (NE) 17:54:00 145.827
BEESAT 2 14 Feb 17:45:38 17:48:17 17° 319° (NW) 17:50:55 435.950
RS-15 14 Feb 17:52:06 18:03:21 42° 36° (NE) 18:14:49 29.354- 29.394
CUBESAT XI-V 14 Feb 17:54:28 17:59:12 87° 284° (WNW) 18:03:52 437.345
CUTE-I 14 Feb 18:09:04 18:14:05 41° 262° (W) 18:19:08 437.470
CANX-2 14 Feb 18:19:45 18:22:32 17° 65° (ENE) 18:25:20 2200.000
Cosmos 2499 14 Feb 18:22:57 18:27:02 14° 55° (NE) 18:30:57 435.465 / 435.565
ISS 14 Feb 18:23:58 18:26:40 23° 15° (NNE) 18:29:19 145.825
Cubesat XI-IV 14 Feb 18:25:01 18:29:39 30° 264° (W) 18:34:21 437.490
DOVE 4 14 Feb 18:32:01 18:36:52 54° 73° (ENE) 18:41:26 437.250
BRITE-PL 14 Feb 18:38:51 18:44:10 41° 263° (W) 18:49:18 437.365/2234.400
COMPASS 1 14 Feb 18:42:45 18:45:09 15° 64° (ENE) 18:47:36 437.405
AIST 2 14 Feb 18:43:21 18:47:07 32° 312° (NW) 18:50:53 435.215
GONETS M04 14 Feb 18:44:56 18:53:20 46° 73° (ENE) 19:01:42
CINEMA 3 14 Feb 18:48:18 18:52:03 27° 69° (ENE) 18:55:41 145.822/145.860
LilacSat-2 14 Feb 18:53:48 18:54:57 11° 270° (W) 18:56:06 437.200
SEEDS 14 Feb 19:05:01 19:08:48 34° 70° (ENE) 19:12:37 437.485
AAUSAT CUBESAT 2 14 Feb 19:05:20 19:08:29 21° 67° (ENE) 19:11:40 437.432
STRAND 1 14 Feb 19:05:56 19:11:03 59° 101° (E) 19:16:08 437.568
CUTE 1.7 + AOD 2 14 Feb 19:07:53 19:11:57 48° 72° (ENE) 19:16:02 437.475
HO-68 14 Feb 19:14:11 19:21:21 78° 71° (ENE) 19:28:34 435.675
GOMX 1 14 Feb 19:17:57 19:22:38 32° 264° (W) 19:27:09 467.674
AO-85 14 Feb 19:19:44 19:22:43 16° 253° (WSW) 19:25:34 145.980
Oscar 11 14 Feb 19:22:47 19:25:17 15° 63° (ENE) 19:27:47 145.826/435.025
PCSat 14 Feb 19:27:37 19:32:46 44° 247° (WSW) 19:37:52 145.827
CUBESAT XI-V 14 Feb 19:34:40 19:35:49 11° 301° (WNW) 19:36:58 437.345
DELFI C3 14 Feb 19:39:01 19:40:06 11° 62° (ENE) 19:41:11 145.870
UWE-3 14 Feb 19:45:01 19:48:33 27° 68° (ENE) 19:52:04 435.000/436.395/437.385
AIST 1 14 Feb 19:47:19 19:49:27 13° 68° (ENE) 19:51:32
CANX-2 14 Feb 19:54:01 19:58:03 44° 262° (W) 20:02:08 2200.000
CUBEBUG 2 14 Feb 19:55:09 19:59:14 47° 73° (ENE) 20:03:15 437.445
ISS 14 Feb 20:00:10 20:03:25 89° 230° (SW) 20:06:40 145.825
RS-15 14 Feb 20:04:51 20:16:59 77° 242° (WSW) 20:29:16 29.354- 29.394
DOVE 4 14 Feb 20:11:34 20:14:48 17° 268° (W) 20:17:57 437.250
Cosmos 2499 14 Feb 20:13:44 20:22:03 69° 79° (E) 20:29:39 435.465 / 435.565
COMPASS 1 14 Feb 20:16:17 20:20:19 51° 260° (W) 20:24:26 437.405
PRISM 14 Feb 20:19:24 20:23:34 73° 285° (WNW) 20:27:42 437.425
CINEMA 3 14 Feb 20:25:11 20:29:07 29° 264° (W) 20:32:57 145.822/145.860
ZACube-1 14 Feb 20:26:06 20:30:09 52° 73° (ENE) 20:34:12 437.345
FUNcube-1 14 Feb 20:32:13 20:36:19 58° 74° (ENE) 20:40:23 145.935
AAUSAT CUBESAT 2 14 Feb 20:40:02 20:43:48 34° 263° (W) 20:47:36 437.432
SEEDS 14 Feb 20:41:25 20:44:36 21° 267° (W) 20:47:49 437.485
GONETS M04 14 Feb 20:42:00 20:50:03 42° 273° (W) 20:58:07
CUTE 1.7 + AOD 2 14 Feb 20:45:37 20:48:04 15° 269° (W) 20:50:32 437.475
STRAND 1 14 Feb 20:46:11 20:49:45 19° 299° (WNW) 20:53:21 437.568
Oscar 11 14 Feb 20:56:45 21:00:58 54° 260° (W) 21:05:13 145.826/435.025
HO-68 14 Feb 21:04:44 21:09:46 20° 269° (W) 21:14:51 435.675
DELFI C3 14 Feb 21:10:29 21:14:27 69° 259° (W) 21:18:27 145.870
UNISAT 6 14 Feb 21:14:53 21:16:19 11° 90° (E) 21:17:44 437.425
AISAT 14 Feb 21:15:16 21:17:22 13° 61° (ENE) 21:19:28 437.250
DX 1 14 Feb 21:19:14 21:21:39 15° 62° (ENE) 21:24:04 434.975-435.025
CUBEBUG 1 14 Feb 21:19:41 21:21:08 11° 60° (ENE) 21:22:36 437.445
UWE-3 14 Feb 21:21:27 21:24:59 26° 265° (W) 21:28:30 435.000/436.395/437.385
AIST 1 14 Feb 21:23:12 21:27:27 57° 266° (W) 21:31:39
HUMSAT D 14 Feb 21:33:33 21:37:37 88° 76° (ENE) 21:41:44 437.325/437.525
CUBEBUG 2 14 Feb 21:33:41 21:36:08 15° 269° (W) 21:38:34 437.445
ISS 14 Feb 21:38:25 21:39:23 11° 230° (SW) 21:40:21 145.825
50 SAT 14 Feb 21:52:28 21:55:43 29° 70° (ENE) 21:59:00 437.505
ESTCUBE 1 14 Feb 21:56:40 22:00:48 36° 69° (ENE) 22:04:58 437.505/2401.250
ANTELSAT 14 Feb 21:57:40 22:01:39 33° 97° (E) 22:05:42 437.575/2403.000
TIGRISAT 14 Feb 22:02:35 22:06:37 35° 97° (E) 22:10:42 435.000
ZACube-1 14 Feb 22:04:44 22:06:46 13° 269° (W) 22:08:48 437.345
Cosmos 2499 14 Feb 22:08:07 22:14:15 24° 280° (W) 22:20:05 435.465 / 435.565
FUNcube-1 14 Feb 22:11:23 22:12:57 12° 270° (W) 22:14:31 145.935
RS-15 14 Feb 22:19:47 22:27:25 20° 263° (W) 22:35:06 29.354- 29.394
PHONESAT 2.4 14 Feb 22:20:00 22:22:23 19° 154° (SSE) 22:24:46 2401.200-2431.200
POPSAT HIP 1 14 Feb 22:26:23 22:28:53 15° 92° (E) 22:31:22 437.405
DUCHIFAT 1 14 Feb 22:26:39 22:28:55 14° 91° (E) 22:31:11 145.980
NANOSAT C BR1 14 Feb 22:27:32 22:30:03 15° 92° (E) 22:32:33 145.865
UKube-1 14 Feb 22:31:03 22:35:20 67° 74° (ENE) 22:39:39 .
VELOX 1 14 Feb 22:31:07 22:35:34 73° 74° (ENE) 22:40:01 145.980
SPROUT 14 Feb 22:31:51 22:35:12 22° 66° (ENE) 22:38:32 437.525
QB50P1 14 Feb 22:37:55 22:41:08 21° 94° (E) 22:44:18 145.935-145.965
AISAT 14 Feb 22:48:50 22:53:17 70° 257° (WSW) 22:57:45 437.250
UNISAT 6 14 Feb 22:49:06 22:53:28 70° 286° (WNW) 22:57:55 437.425
CUBEBUG 1 14 Feb 22:52:21 22:56:47 81° 256° (WSW) 23:01:15 437.445
DX 1 14 Feb 22:53:01 22:57:22 60° 259° (WSW) 23:01:43 434.975-435.025
BUGSAT 1 14 Feb 23:04:04 23:06:55 18° 93° (E) 23:09:45 437.445
50 SAT 14 Feb 23:27:06 23:29:46 19° 266° (W) 23:32:29 437.505
POLYITAN 1 14 Feb 23:32:04 23:36:19 85° 106° (ESE) 23:40:31 437.675
QB50P2 14 Feb 23:32:27 23:36:41 88° 103° (ESE) 23:40:54 145.880/145.840
ESTCUBE 1 14 Feb 23:34:05 23:37:42 23° 266° (W) 23:41:21 437.505/2401.250
ANTELSAT 14 Feb 23:34:41 23:38:14 25° 293° (WNW) 23:41:51 437.575/2403.000
Cosmos 2491 14 Feb 23:37:38 23:42:28 16° 57° (ENE) 23:47:18 435.465 / 435.565
TIGRISAT 14 Feb 23:39:42 23:43:08 23° 293° (WNW) 23:46:37 435.000
DANDE 14 Feb 23:40:34 23:44:41 15° 77° (ENE) 23:48:49 436.750
BEESAT 3 14 Feb 23:49:13 23:52:55 36° 49° (NE) 23:56:34 437.485
TISAT 1 14 Feb 23:54:10 23:58:21 64° 74° (ENE) 00:02:32 437.305
PHONESAT 2.4 14 Feb 23:56:03 23:59:12 46° 171° (S) 00:02:23 2401.200-2431.200
CUSAT 1 14 Feb 23:59:04 00:06:01 33° 88° (E) 00:12:41 437.405
DUCHIFAT 1 15 Feb 00:00:52 00:04:55 50° 288° (WNW) 00:08:58 145.980
POPSAT HIP 1 15 Feb 00:00:53 00:04:56 47° 288° (WNW) 00:08:58 437.405
ITUPSAT 1 15 Feb 00:01:59 00:05:02 17° 61° (ENE) 00:08:05 437.325
NANOSAT C BR1 15 Feb 00:02:01 00:06:03 46° 288° (WNW) 00:10:04 145.865
BEESAT 15 Feb 00:06:23 00:09:41 19° 63° (ENE) 00:13:00 436.000
SPROUT 15 Feb 00:07:05 00:10:59 34° 263° (W) 00:14:55 437.525
UKube-1 15 Feb 00:10:20 00:11:50 12° 270° (W) 00:13:21 .
VELOX 1 15 Feb 00:11:13 00:12:32 11° 271° (W) 00:13:50 145.980
QB50P1 15 Feb 00:13:11 00:17:00 34° 290° (WNW) 00:20:48 145.935-145.965
BEESAT 2 15 Feb 00:23:31 00:27:27 51° 53° (NE) 00:31:19 435.950
JAS-2 15 Feb 00:26:03 00:28:19 13° 87° (E) 00:30:32 435.910
YUBILEINY 15 Feb 00:33:10 00:34:15 10° 70° (ENE) 00:35:20 435.215
BUGSAT 1 15 Feb 00:38:45 00:42:26 35° 290° (WNW) 00:46:06 437.445
SWISSCUBE 15 Feb 00:57:46 01:02:28 63° 73° (ENE) 01:07:13 437.505
Oscar 19 15 Feb 01:03:53 01:08:44 40° 98° (E) 01:13:32 437.125/150
DANDE 15 Feb 01:18:07 01:26:11 68° 95° (E) 01:34:32 436.750
AIST 2 15 Feb 01:25:20 01:28:54 27° 46° (NE) 01:32:27 435.215
BEESAT 3 15 Feb 01:27:24 01:30:28 22° 247° (WSW) 01:33:31 437.485
Cosmos 2491 15 Feb 01:32:19 01:41:05 72° 79° (E) 01:49:52 435.465 / 435.565
PHONESAT 2.4 15 Feb 01:33:04 01:36:16 49° 187° (S) 01:39:26 2401.200-2431.200
TISAT 1 15 Feb 01:33:05 01:34:27 11° 270° (W) 01:35:47 437.305
ITUPSAT 1 15 Feb 01:37:41 01:42:24 60° 259° (W) 01:47:09 437.325
CUSAT 1 15 Feb 01:39:57 01:47:58 60° 284° (WNW) 01:55:32 437.405
BEESAT 15 Feb 01:42:27 01:47:05 52° 260° (W) 01:51:46 436.000
KKS-1 15 Feb 01:50:52 01:54:40 28° 67° (ENE) 01:58:27 437.445
BEESAT 2 15 Feb 02:02:36 02:04:55 15° 250° (WSW) 02:07:14 435.950
JAS-2 15 Feb 02:08:44 02:14:14 76° 287° (WNW) 02:19:25 435.910
Gurwin Techsat 1B 15 Feb 02:20:15 02:25:36 79° 102° (ESE) 02:30:56 435.225
Cosmos 2504 15 Feb 02:20:17 02:23:05 12° 71° (ENE) 02:25:53 435.465 / 435.565
YUBILEINY 15 Feb 02:20:27 02:29:01 60° 91° (E) 02:37:39 435.215
ITAMSAT 1 15 Feb 02:25:07 02:30:09 45° 99° (E) 02:35:10 435.822/435.867
MOZHAYETS 4 15 Feb 02:25:45 02:29:31 26° 67° (ENE) 02:33:20
SWISSCUBE 15 Feb 02:38:04 02:40:42 15° 270° (W) 02:43:21 437.505
Oscar 19 15 Feb 02:43:38 02:47:51 26° 295° (WNW) 02:52:02 437.125/150
SO-50 15 Feb 02:50:39 02:54:50 29° 114° (ESE) 02:59:06 436.795
STARS 15 Feb 02:54:09 02:58:31 70° 75° (ENE) 03:02:54 437.465
AO-7 15 Feb 02:59:45 03:06:59 32° 96° (E) 03:14:07 29.400- 29.500
DANDE 15 Feb 03:02:36 03:09:44 31° 294° (WNW) 03:16:59 436.750
AIST 2 15 Feb 03:03:42 03:07:26 33° 244° (WSW) 03:11:08 435.215
PHONESAT 2.4 15 Feb 03:10:34 03:13:08 21° 204° (SSW) 03:15:41 2401.200-2431.200
CUBESAT XI-V 15 Feb 03:24:24 03:26:19 12° 60° (ENE) 03:28:14 437.345
KKS-1 15 Feb 03:27:17 03:31:10 29° 264° (W) 03:35:03 437.445
CUSAT 1 15 Feb 03:28:00 03:31:39 13° 303° (WNW) 03:35:10 437.405
Cosmos 2491 15 Feb 03:30:24 03:37:04 25° 280° (W) 03:43:45 435.465 / 435.565
JAS-2 15 Feb 03:57:01 03:58:15 11° 307° (NW) 03:59:28 435.910
Gurwin Techsat 1B 15 Feb 04:01:50 04:04:53 16° 301° (WNW) 04:07:56 435.225
MOZHAYETS 4 15 Feb 04:02:26 04:06:33 33° 264° (W) 04:10:43
ITAMSAT 1 15 Feb 04:05:10 04:09:21 25° 296° (WNW) 04:13:32 435.822/435.867
Cosmos 2504 15 Feb 04:06:01 04:14:33 63° 91° (E) 04:23:18 435.465 / 435.565
YUBILEINY 15 Feb 04:18:41 04:26:19 32° 292° (WNW) 04:34:02 435.215
SO-50 15 Feb 04:30:33 04:35:13 41° 312° (NW) 04:39:54 436.795
M-CUBED/EXP-1 PRIME 15 Feb 04:33:15 04:36:43 65° 107° (ESE) 04:40:27 437.505
STARS 15 Feb 04:34:02 04:35:21 11° 270° (W) 04:36:41 437.465
AUBIESAT-1 15 Feb 04:37:45 04:41:17 60° 107° (ESE) 04:45:01 437.475
HORYU 2 15 Feb 04:43:55 04:48:24 85° 282° (WNW) 04:52:52 437.375
STRAND 1 15 Feb 04:47:01 04:49:22 13° 58° (ENE) 04:51:43 437.568
AO-7 15 Feb 04:52:01 05:00:10 61° 295° (WNW) 05:08:16 29.400- 29.500
CUBESAT XI-V 15 Feb 04:58:19 05:03:01 83° 257° (WSW) 05:07:47 437.345
Cubesat XI-IV 15 Feb 05:02:33 05:05:00 13° 89° (E) 05:07:27 437.490
Cosmos 2504 15 Feb 06:00:54 06:08:30 32° 292° (WNW) 06:16:16 435.465 / 435.565
AUBIESAT-1 15 Feb 06:14:31 06:15:28 11° 301° (WNW) 06:16:28 437.475
SO-50 15 Feb 06:16:05 06:17:03 10° 333° (NNW) 06:18:01 436.795
STRAND 1 15 Feb 06:22:39 06:27:47 89° 254° (WSW) 06:32:58 437.568
LilacSat-2 15 Feb 06:23:14 06:27:01 73° 101° (ESE) 06:30:48 437.200
CUTE-I 15 Feb 06:24:39 06:30:03 74° 103° (ESE) 06:35:26 437.470
DOVE 4 15 Feb 06:32:35 06:33:39 11° 89° (E) 06:34:44 437.250
Cubesat XI-IV 15 Feb 06:40:18 06:45:43 82° 285° (WNW) 06:51:06 437.490
BRITE-PL 15 Feb 06:43:10 06:47:44 65° 101° (E) 06:51:58 437.365/2234.400
HO-68 15 Feb 06:43:48 06:46:45 13° 86° (E) 06:49:41 435.675
AO-7 15 Feb 06:46:58 06:51:16 15° 316° (NW) 06:55:36 29.400- 29.500
O/OREOS (USA 219) 15 Feb 06:56:28 07:00:56 88° 119° (ESE) 07:05:30 437.305
Cosmos 2499 15 Feb 07:06:05 07:06:52 10° 70° (ENE) 07:07:39 435.465 / 435.565
PRISM 15 Feb 07:09:26 07:13:36 90° 78° (ENE) 07:17:49 437.425
GOMX 1 15 Feb 07:18:35 07:22:54 76° 101° (E) 07:27:03 467.674
CANX-2 15 Feb 07:38:13 07:41:57 28° 95° (E) 07:45:40 2200.000
GONETS M04 15 Feb 07:47:07 07:55:21 50° 89° (E) 08:03:38
AO-85 15 Feb 07:53:20 07:57:19 22° 109° (ESE) 08:01:24 145.980
COMPASS 1 15 Feb 07:58:42 08:02:06 23° 94° (E) 08:05:29 437.405
CUTE-I 15 Feb 08:06:08 08:09:29 17° 301° (WNW) 08:12:49 437.470
STRAND 1 15 Feb 08:06:40 08:07:41 11° 273° (W) 08:08:41 437.568
DOVE 4 15 Feb 08:07:43 08:11:51 62° 286° (WNW) 08:15:56 437.250
UNISAT 6 15 Feb 08:15:21 08:16:56 12° 61° (ENE) 08:18:32 437.425
CINEMA 3 15 Feb 08:18:01 08:22:07 55° 100° (E) 08:26:17 145.822/145.860
AAUSAT CUBESAT 2 15 Feb 08:21:14 08:25:04 33° 96° (E) 08:28:52 437.432
FUNcube-1 15 Feb 08:21:58 08:22:37 10° 89° (E) 08:23:14 145.935
Cubesat XI-IV 15 Feb 08:22:42 08:24:56 13° 304° (WNW) 08:27:10 437.490
SEEDS 15 Feb 08:23:07 08:27:21 58° 100° (E) 08:31:33 437.485
BRITE-PL 15 Feb 08:23:22 08:25:36 14° 300° (WNW) 08:27:46 437.365/2234.400
RS-15 15 Feb 08:24:38 08:29:39 14° 94° (E) 08:34:44 29.354- 29.394
CUTE 1.7 + AOD 2 15 Feb 08:27:22 08:31:41 87° 103° (ESE) 08:36:00 437.475
PCSat 15 Feb 08:28:12 08:32:08 21° 106° (ESE) 08:36:05 145.827
HO-68 15 Feb 08:28:22 08:35:37 75° 105° (ESE) 08:42:47 435.675
O/OREOS (USA 219) 15 Feb 08:39:12 08:41:03 12° 312° (NW) 08:42:55 437.305
Oscar 11 15 Feb 08:43:22 08:46:57 25° 94° (E) 08:50:32 145.826/435.025
DELFI C3 15 Feb 08:48:54 08:51:10 15° 91° (E) 08:53:27 145.870
Cosmos 2499 15 Feb 08:49:28 08:57:59 57° 90° (E) 09:06:34 435.465 / 435.565
ANTELSAT 15 Feb 08:57:41 09:01:28 32° 69° (ENE) 09:05:16 437.575/2403.000
GOMX 1 15 Feb 08:59:18 09:00:20 11° 301° (WNW) 09:01:22 467.674
TIGRISAT 15 Feb 09:02:23 09:06:14 34° 70° (ENE) 09:10:04 435.000
UWE-3 15 Feb 09:08:57 09:13:08 52° 100° (E) 09:17:23 435.000/436.395/437.385
CANX-2 15 Feb 09:14:07 09:17:44 27° 292° (WNW) 09:21:21 2200.000
HUMSAT D 15 Feb 09:17:38 09:19:42 13° 91° (E) 09:21:45 437.325/437.525
DUCHIFAT 1 15 Feb 09:20:18 09:22:17 13° 62° (ENE) 09:24:17 145.980
POPSAT HIP 1 15 Feb 09:20:31 09:22:46 14° 63° (ENE) 09:25:01 437.405
CUBEBUG 2 15 Feb 09:21:00 09:25:15 83° 284° (WNW) 09:29:35 437.445
NANOSAT C BR1 15 Feb 09:21:21 09:23:36 14° 63° (ENE) 09:25:50 145.865
QB50P1 15 Feb 09:31:45 09:34:42 19° 65° (ENE) 09:37:40 145.935-145.965
AO-85 15 Feb 09:32:03 09:37:24 63° 307° (NW) 09:42:53 145.980
COMPASS 1 15 Feb 09:33:57 09:37:43 31° 290° (WNW) 09:41:26 437.405
GONETS M04 15 Feb 09:44:27 09:52:21 38° 290° (WNW) 10:00:22
UNISAT 6 15 Feb 09:48:50 09:53:06 71° 257° (WSW) 09:57:22 437.425
ZACube-1 15 Feb 09:49:12 09:53:29 80° 282° (WNW) 09:57:50 437.345
AIST 1 15 Feb 09:52:53 09:57:17 80° 97° (E) 10:01:42
FUNcube-1 15 Feb 09:55:04 09:59:19 73° 285° (WNW) 10:03:39 145.935
BUGSAT 1 15 Feb 09:55:15 09:57:52 16° 64° (ENE) 10:00:29 437.445
CINEMA 3 15 Feb 09:56:43 09:58:51 14° 297° (WNW) 10:01:00 145.822/145.860
AAUSAT CUBESAT 2 15 Feb 09:57:06 10:00:23 22° 293° (WNW) 10:03:40 437.432
SEEDS 15 Feb 10:00:20 10:02:35 14° 297° (WNW) 10:04:50 437.485
PCSat 15 Feb 10:09:43 10:15:03 59° 304° (NW) 10:20:27 145.827
HO-68 15 Feb 10:17:09 10:22:37 24° 304° (NW) 10:28:04 435.675
Oscar 11 15 Feb 10:19:15 10:23:06 31° 291° (WNW) 10:26:56 145.826/435.025
VELOX 1 15 Feb 10:22:20 10:24:14 13° 90° (E) 10:26:08 145.980
DELFI C3 15 Feb 10:22:27 10:26:21 46° 287° (WNW) 10:30:13 145.870
POLYITAN 1 15 Feb 10:25:23 10:29:35 71° 75° (ENE) 10:33:48 437.675
QB50P2 15 Feb 10:25:43 10:29:55 74° 75° (ENE) 10:34:09 145.880/145.840
RS-15 15 Feb 10:28:32 10:39:28 67° 116° (ESE) 10:51:02 29.354- 29.394
ANTELSAT 15 Feb 10:34:50 10:38:15 23° 266° (W) 10:41:39 437.575/2403.000
CUSAT 1 15 Feb 10:37:10 10:39:56 14° 57° (ENE) 10:42:22 437.405
AISAT 15 Feb 10:38:59 10:42:16 20° 93° (E) 10:45:30 437.250
TIGRISAT 15 Feb 10:39:43 10:43:01 21° 266° (W) 10:46:18 435.000
DX 1 15 Feb 10:40:58 10:44:16 21° 94° (E) 10:47:34 434.975-435.025
CUBEBUG 1 15 Feb 10:41:11 10:44:05 17° 92° (E) 10:46:57 437.445
JAS-2 15 Feb 10:41:38 10:43:05 11° 53° (NE) 10:44:30 435.910
Cosmos 2499 15 Feb 10:43:35 10:51:29 36° 291° (WNW) 10:59:26 435.465 / 435.565
UWE-3 15 Feb 10:46:42 10:49:13 16° 296° (WNW) 10:51:46 435.000/436.395/437.385
HUMSAT D 15 Feb 10:51:32 10:55:39 55° 286° (WNW) 10:59:47 437.325/437.525
DUCHIFAT 1 15 Feb 10:53:21 10:57:31 62° 259° (W) 11:01:41 145.980
POPSAT HIP 1 15 Feb 10:53:58 10:58:06 57° 259° (W) 11:02:16 437.405
NANOSAT C BR1 15 Feb 10:54:45 10:58:53 57° 259° (W) 11:03:03 145.865
50 SAT 15 Feb 10:56:25 10:59:56 35° 98° (E) 11:03:27 437.505
QB50P1 15 Feb 11:06:13 11:10:13 40° 262° (W) 11:14:13 145.935-145.965
AO-85 15 Feb 11:15:44 11:19:02 16° 328° (NNW) 11:22:20 145.980
